星链-36733(STARLINK-36733)

导读

STARLINK-36733是美国SpaceX星链星座的卫星,于2026年2月15日发射入轨,归属美国所有。星链项目旨在搭建全球卫星互联网通信网络,为全球多地提供高速低延迟互联网服务,这颗卫星将进一步扩容星链星座的服务覆盖范围与通信容量,完善星座的整体运行架构。

基本信息
目录编号:
67811
目录名称:
STARLINK-36733
国际标识:
2026-032Q
轨道中心:
EARTH
卫星名称:
星链-36733
卫星全名:
星链-36733(STARLINK-36733)
卫星状态:
在轨 (已飞行118 天)
发射日期:
2026-02-15 UTC
国别 :
美国 (US)
星等 :
--
轨道信息
数据来源 国际轨道数据
星历时间: 2026-06-12T13:42:21+0800
22小时前
查看轨道信息
半长轴: 6843.657km
偏心率: 0.0001734
轨道倾角: 97.286°
近地点辐角 68.677°
升交点赤经 351.121°
平近点角 291.466°
近地点: 464.333km
远地点: 466.707km
周期: 93.906分钟
每日圈数: 15.334531
详细信息
固有亮度:
5
最大亮度:
2.5
卫星平台:
Starlink V1.0
覆盖范围:
全球
运营商:
太空探索技术公司
运营商所在国:
美国
制造商(研发单位):
太空探索技术公司
制造商所在国:
美国
使用方式:
暂无
卫星简介
Starlink 计划是 SpaceX 推出的全球卫星互联网项目,通过发射低轨道卫星,为全球尤其是偏远地区提供高速、低延迟的互联网服务。自 2019 年起,Starlink 已部署数千颗卫星,旨在缩小全球数字鸿沟,推动互联网普及。该项目还为军事、航空等行业提供通信支持,带来广泛经济效益。
2D轨道图
3D轨道图
轨道高度分析图
轨道倾角分析图
轨道综合分析图
查看轨道综合分析图